Location: Newark
(50.8922°N, 11.6094°E)
Time: 01:09:45
(UTC+00:00)

N. Korean satellite - Pass Details

Date: 29 January 2020
Orbit: 456 x 505 km, 97.2° (Epoch: 27 February)

Event Time Altitude Azimuth Distance (km) Brightness Sun altitude
Rises 03:59:22 0° 30° (NNE) 2,553 10.7 -27.6°
Reaches altitude 10° 04:02:14 10° 56° (NE) 1,678 10.0 -27.2°
Maximum altitude 04:04:15 14° 90° (E) 1,434 9.8 -26.8°
Drops below altitude 10° 04:06:17 10° 124° (SE) 1,685 9.9 -26.5°
Sets 04:09:10 0° 150° (SSE) 2,571 10.6 -26.1°
